Regional Weather Roundup
Issued by NWS

Home | Current Version | Previous Version | Graphics & Text | Print | Product List | Glossary On
Versions: 1 2 3 4 5 6 7 8 9 10 11 12 13 14 15 16 17 18 19 20 21 22 23 24 25 26 27 28 29 30 31 32 33 34 35 36 37 38 39 40 41 42 43 44 45 46 47 48 49 50
000
ASUS43 KDMX 061507
RWRIA

WEATHER ROUNDUP FOR IOWA
NATIONAL WEATHER SERVICE DES MOINES IA
1000 AM CDT MON JUL 06 2015

NOTE: "FAIR" INDICATES FEW OR NO CLOUDS BELOW 12,000 FEET WITH NO
SIGNIFICANT WEATHER AND/OR OBSTRUCTIONS TO VISIBILITY.

* - THESE STATIONS ARE NOT NWS STATIONS...THUS NOT UNDER NWS
QUALITY CONTROL.  THEY ALSO DO NOT REPORT WEATHER SUCH
AS PRECIPITATION OR FOG.

IAZ001>003-012>014-020>022-031>034-043>046-061600-
   NORTHWEST IOWA

CITY           SKY/WX    TMP DP  RH WIND       PRES   REMARKS
CARROLL *      LGT RAIN  72  72 100 CALM      29.88R
CHEROKEE *     LGT RAIN  73  72  94 W3        29.88R
DENISON *      LGT RAIN  72  70  94 CALM      29.88R
LE MARS *      CLOUDY    73  70  88 NW12      29.90R
ORANGE CITY *  CLOUDY    70  68  94 NW9       29.89R FOG
SHELDON *      PTSUNNY   70  70 100 W15G21    29.87S
SIOUX CITY     LGT RAIN  73  69  87 NW6       29.88R
SPENCER        LGT RAIN  72  68  87 NW8       29.88R
STORM LAKE *   PTSUNNY   70  70 100 SE8       29.90R
$$

IAZ055>058-069>071-079>083-090>094-061600-
   SOUTHWEST IOWA

CITY           SKY/WX    TMP DP  RH WIND       PRES   REMARKS
ATLANTIC *     PTSUNNY   75  73  94 NW3       29.88R
AUDUBON *      LGT RAIN  73  70  88 CALM      29.89R
CLARINDA *     MOSUNNY   77  75  94 S10       29.88S
COUNCIL BLFS * CLOUDY    73  72  94 S5        29.90R FOG
CRESTON *      SUNNY     77  73  88 S8        29.89S
HARLAN  *      MOSUNNY   73  73 100 CALM      29.91F
LAMONI         CLOUDY    78  72  81 S10       29.90F HX  80
RED OAK *      LGT RAIN  75  75 100 NW6       29.89R
SHENANDOAH *   LGT RAIN  79  73  83 CALM      29.88R HX  82
$$

IAZ047>049-059>061-072>074-084-061600-
   CENTRAL IOWA

CITY           SKY/WX    TMP DP  RH WIND       PRES   REMARKS
AMES           RAIN      72  70  93 S7        29.87R
ANKENY *       SUNNY     73  73 100 S8        29.87R
CHARITON *     SUNNY     75  72  88 SW7       29.90S
DES MOINES     CLOUDY    76  71  85 SE9       29.88S
GRINNELL*      LGT RAIN  70  70 100 SE10      29.91S
KNOXVILLE *    CLOUDY    73  70  88 E7        29.89S
MARSHALLTOWN   LGT RAIN  70  69  97 SE12      29.86S
PELLA *        CLOUDY    72  72 100 E3        29.91S
PERRY *        LGT RAIN  73  72  94 SE3       29.87S
$$

IAZ004>006-015-016-023>025-035-036-061600-
   NORTH CENTRAL IOWA

CITY           SKY/WX    TMP DP  RH WIND       PRES   REMARKS
ALGONA *       CLOUDY    70  68  94 S16G23    29.86F
CLARION *      CLOUDY    70  68  94 S7        29.86F
ESTHERVILLE    CLOUDY    71  69  93 SW9       29.88R
FORT DODGE *   CLOUDY    72  66  83 S3        29.88F
MASON CITY     LGT RAIN  72  70  93 S8        29.88F
FOREST CITY *  DRIZZLE   70  70 100 S9        29.86F
IOWA FALLS *   PTSUNNY   70  68  94 SE5       29.86F
$$

IAZ007>011-017>019-026>030-037>042-050>054-066-061600-
   NORTHEAST IOWA

CITY           SKY/WX    TMP DP  RH WIND       PRES   REMARKS
CEDAR RAPIDS   RAIN      71  71 100 W3        29.92S FOG
CHARLES CITY * SUNNY     70  70 100 S9        29.86F
CLINTON *      CLOUDY    73  70  88 N3        29.96R THUNDER
DECORAH *        N/A    N/A N/A N/A MISG        N/A
DUBUQUE        CLOUDY    72  71  97 SW9       29.95R FOG
MONTICELLO *   RAIN      72  72 100 S7        29.95R
OELWEIN *        N/A     68  68 100 SE8       29.89F
WATERLOO       LGT RAIN  69  68  96 SE7       29.84F
$$

IAZ064-065-067-068-078-061600-
   EAST CENTRAL IOWA

CITY           SKY/WX    TMP DP  RH WIND       PRES   REMARKS
DAVENPORT      CLOUDY    75  70  84 SW9       29.93R
IOWA CITY      TSTM      72  70  93 SE7       29.94S FOG
MT. PLEASANT * CLOUDY    77  70  78 S7        29.93S
MUSCATINE *    DRIZZLE   73  70  88 W14G24    29.94R
QUAD CITIES    CLOUDY    77  70  79 SW9       29.92S
$$

IAZ062-063-075>077-085>089-095>099-061600-
   SOUTHEAST IOWA

CITY           SKY/WX    TMP DP  RH WIND       PRES   REMARKS
BURLINGTON     CLOUDY    77  73  87 S13       29.93F
FAIRFIELD *    CLOUDY    73  70  88 CALM      29.93R
FORT MADISON * SUNNY     75  72  88 S10       29.94F
KEOKUK *       SUNNY     77  73  88 S10       29.92F
OSKALOOSA *    HVY RAIN  72  70  94 CALM      29.91F
CENTERVILLE *  SUNNY     75  70  83 S10       29.92F
OTTUMWA        CLOUDY    74  71  91 CALM      29.90F
WASHINGTON *   CLOUDY    72  72 100 NE5       29.95R FOG
$$

ABBREVIATIONS USED IN REMARKS
   TC - TEMPERATURES IN CELSIUS
  WCI - WIND CHILL INDEX
   HX - HEAT INDEX
  VSB - VISIBILITY
$$




USA.gov is the U.S. government's official web portal to all federal, state and local government web resources and services.